Date String (YYYY-MM-DD hh:mm:ss) UTC,Instrument flags,absolute air pressure of the measurement (hPa),sample flow rate (lpm),inlet stack bypass flow (lpm),air temperature of the measurement (°C),ambient temperature measured by the external sensor (°C),aerosol sample conditioner tube jacket temperature (°C),OPC LED temperature (°C),internal box temperature (°C),relative humidity of the measurement (%),span deviation,mass concentration of particles derived from Lorenz-Mie calculation of OPC scattering (μg/m³),mass concentration of particles derived from Lorenz-Mie calculation of OPC scattering (μg/m³),mass concentration of particles derived from Lorenz-Mie calculation of OPC scattering (μg/m³)
DateTimeUTC,F1_M11,P_M11,Q1_M11,Q2_M11,T1_M11,T2_M11,T3_M11,T4_M11,T5_M11,U1_M11,ZSPAN_M11,X2_M11,X0_M11,X1_M11
2024-04-20 14:00:00,SystemResetWarning,0835.6,4.98,000.00,019.0,018.5,000.0,027.5,020.8,024.4,0001.0,0007.91,0009.12,0007.77
2024-04-20 14:01:00,SystemResetWarning,0835.6,5.00,000.00,019.0,018.5,000.0,027.5,020.8,024.3,0000.9,0007.87,0009.10,0007.72
2024-04-20 14:02:00,SystemResetWarning,0835.6,5.01,000.00,019.0,018.5,000.0,027.5,020.8,024.2,0000.9,0007.80,0009.03,0007.66
2024-04-20 14:03:00,SystemResetWarning,0835.6,5.00,000.00,019.0,018.5,000.0,027.5,020.8,024.2,0000.5,0007.75,0008.99,0007.61
2024-04-20 14:04:00,SystemResetWarning,0835.6,5.00,000.00,019.0,018.5,000.0,027.5,020.8,024.2,0000.6,0007.72,0008.95,0007.58
2024-04-20 14:05:00,SystemResetWarning,0835.6,5.00,000.00,019.0,018.5,000.0,027.5,020.8,024.2,0000.2,0007.67,0008.90,0007.54
2024-04-20 14:06:00,SystemResetWarning,0835.6,5.00,000.00,019.0,018.5,000.0,027.5,020.8,024.1,0000.4,0007.62,0008.83,0007.51
2024-04-20 14:07:00,SystemResetWarning,0835.6,5.00,000.00,019.0,018.6,000.0,027.5,020.8,024.0,0000.1,0007.60,0008.77,0007.50
2024-04-20 14:08:00,SystemResetWarning,0835.6,5.00,000.00,019.0,018.6,000.0,027.5,020.8,024.0,0000.3,0007.59,0008.77,0007.47
2024-04-20 14:09:00,SystemResetWarning,0835.8,5.00,000.00,019.1,018.6,000.0,027.5,020.8,024.0,0000.3,0007.58,0008.76,0007.46
2024-04-20 14:10:00,SystemResetWarning,0835.6,5.00,000.00,019.1,018.6,000.0,027.5,020.8,023.9,-000.2,0007.54,0008.70,0007.44
2024-04-20 14:11:00,SystemResetWarning,0835.6,5.00,000.00,019.1,018.6,000.0,027.5,020.8,023.8,-000.3,0007.51,0008.67,0007.42
2024-04-20 14:12:00,SystemResetWarning,0835.6,5.00,000.00,019.1,018.6,000.0,027.5,020.8,023.8,0000.3,0007.50,0008.64,0007.41
2024-04-20 14:13:00,SystemResetWarning,0835.6,5.00,000.00,019.1,018.6,000.0,027.5,020.8,023.8,0000.2,0007.50,0008.65,0007.40
2024-04-20 14:14:00,SystemResetWarning,0835.7,5.00,000.00,019.1,018.6,000.0,027.5,020.8,023.7,0000.2,0007.48,0008.62,0007.39
2024-04-20 14:15:00,SystemResetWarning,0835.7,5.01,000.00,019.1,018.6,000.0,027.5,020.8,023.7,-000.3,0007.48,0008.62,0007.39
2024-04-20 14:16:00,SystemResetWarning,0835.7,5.01,000.00,019.1,018.6,000.0,027.5,020.8,023.6,-000.4,0007.50,0008.63,0007.40
2024-04-20 14:17:00,SystemResetWarning,0835.8,5.00,000.00,019.1,018.6,000.0,027.5,020.8,023.5,-001.0,0007.52,0008.67,0007.43
2024-04-20 14:18:00,SystemResetWarning,0835.7,5.01,000.00,019.1,018.6,000.0,027.5,020.8,023.4,-000.8,0007.54,0008.69,0007.45
2024-04-20 14:19:00,SystemResetWarning,0835.8,5.00,000.00,019.1,018.6,000.0,027.5,020.9,023.3,-000.6,0007.55,0008.71,0007.46
2024-04-20 14:20:00,SystemResetWarning,0835.8,4.99,000.00,019.1,018.6,000.0,027.5,020.9,023.3,-000.4,0007.54,0008.69,0007.46
2024-04-20 14:21:00,SystemResetWarning,0835.8,4.99,000.00,019.1,018.6,000.0,027.5,020.8,023.3,-000.5,0007.54,0008.68,0007.45
2024-04-20 14:22:00,SystemResetWarning,0835.8,5.00,000.00,019.1,018.6,000.0,027.5,020.9,023.2,-000.2,0007.56,0008.75,0007.45
2024-04-20 14:23:00,SystemResetWarning,0835.7,5.00,000.00,019.1,018.6,000.0,027.5,020.9,023.1,-000.7,0007.57,0008.79,0007.44
2024-04-20 14:24:00,SystemResetWarning,0835.8,5.01,000.00,019.1,018.6,000.0,027.6,020.9,023.1,-001.1,0007.55,0008.77,0007.43
2024-04-20 14:25:00,SystemResetWarning,0835.7,5.01,000.00,019.1,018.6,000.0,027.6,020.9,023.2,-001.0,0007.57,0008.83,0007.44
2024-04-20 14:26:00,SystemResetWarning,0835.7,5.00,000.00,019.1,018.6,000.0,027.6,020.9,023.3,-000.6,0007.56,0008.81,0007.43
2024-04-20 14:27:00,SystemResetWarning,0835.6,4.98,000.00,019.1,018.6,000.0,027.6,020.9,023.4,0000.4,0007.54,0008.78,0007.41
2024-04-20 14:28:00,SystemResetWarning,0835.6,5.00,000.00,019.1,018.6,000.0,027.6,020.9,023.3,0001.5,0007.54,0008.79,0007.40
2024-04-20 14:29:00,SystemResetWarning,0835.6,5.01,000.00,019.1,018.6,000.0,027.6,020.9,023.2,0002.0,0007.51,0008.79,0007.37
2024-04-20 14:30:00,SystemResetWarning,0835.6,5.01,000.00,019.1,018.7,000.0,027.6,020.9,023.2,0000.0,0007.48,0008.73,0007.35
2024-04-20 14:31:00,SystemResetWarning,0835.6,5.00,000.00,019.1,018.7,000.0,027.6,020.9,023.1,0000.0,0007.47,0008.72,0007.34
2024-04-20 14:32:00,SystemResetWarning,0835.6,4.99,000.00,019.1,018.7,000.0,027.6,020.9,023.2,0000.5,0007.47,0008.74,0007.33
2024-04-20 14:33:00,SystemResetWarning,0835.7,5.00,000.00,019.2,018.7,000.0,027.6,020.9,023.1,0000.0,0007.45,0008.68,0007.33
2024-04-20 14:34:00,SystemResetWarning,0835.6,4.99,000.00,019.2,018.7,000.0,027.6,020.9,023.1,0000.0,0007.43,0008.67,0007.31
2024-04-20 14:35:00,SystemResetWarning,0835.7,5.01,000.00,019.2,018.7,000.0,027.6,020.9,023.0,0000.0,0007.42,0008.68,0007.29
2024-04-20 14:36:00,SystemResetWarning,0835.6,5.01,000.00,019.2,018.7,000.0,027.6,020.9,023.1,0000.0,0007.40,0008.67,0007.28
2024-04-20 14:37:00,SystemResetWarning,0835.6,5.00,000.00,019.2,018.7,000.0,027.6,020.9,023.2,0000.0,0007.40,0008.67,0007.28
2024-04-20 14:38:00,SystemResetWarning,0835.6,4.99,000.00,019.2,018.7,000.0,027.6,020.9,023.3,0000.0,0007.40,0008.68,0007.27
2024-04-20 14:39:00,SystemResetWarning,0835.6,4.99,000.00,019.2,018.7,000.0,027.6,020.9,023.3,0000.0,0007.38,0008.67,0007.25
2024-04-20 14:40:00,SystemResetWarning,0835.6,5.00,000.00,019.2,018.7,000.0,027.6,020.9,023.3,0000.0,0007.31,0008.57,0007.20
2024-04-20 14:41:00,SystemResetWarning,0835.7,5.01,000.00,019.2,018.7,000.0,027.6,020.9,023.3,0000.0,0007.29,0008.54,0007.17
2024-04-20 14:42:00,SystemResetWarning,0835.6,5.01,000.00,019.2,018.7,000.0,027.6,021.0,023.3,0000.0,0007.28,0008.54,0007.16
2024-04-20 14:43:00,SystemResetWarning,0835.5,5.01,000.00,019.2,018.7,000.0,027.6,021.0,023.3,0000.0,0007.26,0008.51,0007.15
2024-04-20 14:44:00,SystemResetWarning,0835.5,5.00,000.00,019.2,018.7,000.0,027.6,021.0,023.3,0000.0,0007.23,0008.49,0007.11
2024-04-20 14:45:00,SystemResetWarning,0835.5,4.99,000.00,019.2,018.7,000.0,027.6,021.0,023.2,0000.0,0007.21,0008.50,0007.09
2024-04-20 14:46:00,SystemResetWarning,0835.5,4.99,000.00,019.2,018.7,000.0,027.6,021.0,023.2,0000.0,0007.17,0008.41,0007.06
2024-04-20 14:47:00,SystemResetWarning,0835.5,4.99,000.00,019.2,018.7,000.0,027.6,021.0,023.2,-000.0,0007.13,0008.37,0007.03
2024-04-20 14:48:00,SystemResetWarning,0835.6,5.02,000.00,019.2,018.8,000.0,027.6,021.0,023.3,-000.1,0007.10,0008.33,0007.00
2024-04-20 14:49:00,SystemResetWarning,0835.5,5.01,000.00,019.2,018.8,000.0,027.7,021.0,023.3,0000.0,0007.03,0008.25,0006.93
2024-04-20 14:50:00,SystemResetWarning,0835.5,4.99,000.00,019.2,018.8,000.0,027.7,021.0,023.3,0000.0,0006.98,0008.20,0006.88
2024-04-20 14:51:00,SystemResetWarning,0835.5,4.99,000.00,019.2,018.8,000.0,027.7,021.0,023.3,0000.0,0006.96,0008.20,0006.85
2024-04-20 14:52:00,SystemResetWarning,0835.5,4.99,000.00,019.2,018.8,000.0,027.7,021.0,023.3,0000.0,0006.94,0008.24,0006.82
2024-04-20 14:53:00,SystemResetWarning,0835.5,5.01,000.00,019.3,018.8,000.0,027.7,021.0,023.3,0000.0,0006.89,0008.20,0006.76
2024-04-20 14:54:00,SystemResetWarning,0835.5,5.01,000.00,019.3,018.8,000.0,027.7,021.0,023.3,0000.0,0006.84,0008.17,0006.72
2024-04-20 14:55:00,SystemResetWarning,0835.5,5.00,000.00,019.3,018.8,000.0,027.7,021.0,023.3,-000.8,0006.84,0008.18,0006.71
2024-04-20 14:56:00,SystemResetWarning,0835.5,4.99,000.00,019.3,018.8,000.0,027.7,021.0,023.3,-000.3,0006.80,0008.13,0006.69
2024-04-20 14:57:00,SystemResetWarning,0835.4,4.99,000.00,019.3,018.8,000.0,027.7,021.0,023.3,-000.1,0006.81,0008.15,0006.68
2024-04-20 14:58:00,SystemResetWarning,0835.4,5.01,000.00,019.3,018.8,000.0,027.7,021.0,023.3,-000.4,0006.79,0008.15,0006.66
2024-04-20 14:59:00,SystemResetWarning,0835.4,5.01,000.00,019.3,018.8,000.0,027.7,021.0,023.3,0000.0,0006.76,0008.12,0006.63
